Location: Bucharest
(44.4268°N, 26.1025°E)
Time: 09:50:33
(UTC+03:00)

Oscar 19 - Pass Details

Date: 03 July 2022
Orbit: 773 x 790 km, 98.8° (Epoch: 12 August)

Event Time Altitude Azimuth Distance (km) Brightness Sun altitude
Rises 03:59:54 0° 24° (NNE) 3,260 15.6 -13.3°
Reaches altitude 10° 04:02:31 10° 36° (NE) 2,327 14.6 -13.0°
Maximum altitude 04:06:56 29° 95° (E) 1,401 12.3 -12.5°
Drops below altitude 10° 04:11:20 10° 155° (SSE) 2,314 12.8 -12.0°
Sets 04:13:55 0° 166° (SSE) 3,237 13.5 -11.7°
